Terminal Aerodrome Forecast
Issued by NWS Greer, SC

Current Version | Previous Version | Text Only | Print | Product List | Glossary On
Versions: 1 2 3 4 5 6 7 8 9 10 11 12 13 14 15 16 17 18 19 20 21 22 23 24 25 26 27 28 29 30 31 32 33 34 35 36 37 38 39 40 41 42 43 44 45 46 47 48 49 50
000
FTUS42 KGSP 051201 AAA
TAFCLT
TAF AMD
KCLT 051201Z 0512/0612 20005KT P6SM FEW010 OVC100
      TEMPO 0512/0514 BKN009 OVC100
     FM051500 22007KT P6SM BKN110
     FM051900 20010G17KT P6SM VCSH SCT060 BKN090 PROB30 0521/0601
      4SM TSRA BKN040CB
     FM060100 20009KT P6SM BKN120=

USA.gov is the U.S. government's official web portal to all federal, state and local government web resources and services.